Lid_Strength_Index
14 12 12 13 13 13 14 14 16 15 14 12 10 9 9 9 9 9 8 8 8 8 8 8 7 7 7 6 6 5 6 6 6 5 5 5 5 5 4 4 4 4 4 4
16 12 13 14 13 13 13 13 13 13 13 10 9 9 9 9 8 8 8 7 7 7 7 7 7 7 6 6 6 6 7 7 6 6 5 5 5 5 5 5 5 5 5 4
17 14 14 17 14 13 13 12 12 15 12 10 10 9 10 9 9 8 8 8 8 7 7 7 7 7 7 7 7 7 7 7 6 6 6 6 6 6 6 7 6 6 5 5
18 16 20 15 11 10 12 10 10 10 10 9 9 9 8 8 9 8 8 8 8 8 7 7 7 7 7 7 7 7 8 8 7 7 7 7 7 8 8 7 7 6 6 6
20 19 16 13 11 12 13 13 10 10 10 9 8 8 9 7 7 8 8 8 8 8 7 8 7 7 8 8 8 9 9 9 8 8 8 9 9 8 8 9 9 9 9 9
15 18 21 14 10 8 9 15 9 9 9 9 9 12 10 6 6 7 7 7 8 8 8 8 8 9 9 10 10 10 10 9 9 9 9 8 9 9 9 10 11 10 10 9
16 17 15 11 8 7 16 15 9 8 8 9 10 9 8 7 8 7 7 8 8 8 9 9 9 10 10 11 11 10 10 10 9 9 10 10 10 10 11 12 11 11 11 9
15 17 18 8 9 13 11 9 8 8 7 8 8 8 8 8 8 8 9 8 9 10 10 10 10 11 12 12 11 10 10 11 11 11 11 12 12 12 12 12 11 10 9 8
13 14 11 8 9 8 8 8 7 8 7 7 8 8 8 8 8 9 9 9 10 11 11 11 11 11 12 11 11 11 12 13 13 13 12 12 13 13 13 10 10 10 9 9
12 11 10 9 7 6 6 7 7 6 6 7 7 7 8 9 9 10 10 11 11 12 13 12 11 11 13 13 13 14 15 15 14 14 13 12 12 12 10 10 10 10 9 9
13 11 10 8 7 6 6 6 6 6 7 7 8 8 9 10 11 11 12 12 12 13 13 13 13 14 14 14 15 15 15 15 14 13 12 12 11 10 10 9 9 9 10 9
15 11 10 9 7 6 6 7 7 8 8 8 9 10 11 12 12 12 13 12 12 13 15 15 15 15 15 15 15 15 15 15 13 12 12 11 11 10 9 10 10 10 11 10
10 8 8 7 7 6 7 7 7 8 9 10 10 11 12 13 13 12 13 13 15 15 15 16 16 16 15 15 15 15 16 14 14 13 12 12 12 12 12 10 10 10 10 10
7 8 8 8 9 8 8 8 8 9 10 10 11 12 13 13 13 13 15 15 15 16 17 17 16 16 15 15 16 16 15 14 13 12 12 12 12 12 11 11 11 10 9 10
7 7 8 7 8 8 8 9 10 11 11 11 12 12 13 13 15 16 15 16 16 17 17 17 16 16 16 16 16 15 15 14 12 11 11 11 11 11 11 10 11 10 8 10
7 7 9 10 9 9 10 11 11 11 11 12 13 13 13 15 16 17 17 17 18 19 18 17 17 17 16 16 15 15 14 14 11 10 10 10 10 12 11 11 11 10 9 8
7 9 8 9 9 9 10 10 11 11 12 13 13 14 16 17 17 18 18 18 18 18 17 17 18 17 15 15 16 15 14 13 11 9 10 10 10 11 11 11 10 9 8 7
7 8 9 9 9 10 10 10 11 11 13 13 15 16 17 18 19 19 18 18 18 18 17 17 17 16 16 16 15 14 13 11 10 9 10 11 11 11 11 10 9 9 8 8
7 8 8 9 10 10 11 11 12 13 14 15 17 19 18 18 18 19 19 19 18 18 18 17 16 17 17 16 15 15 14 12 11 11 10 11 10 10 10 9 9 9 9 8
9 9 9 10 10 11 12 12 14 15 15 16 17 18 18 19 19 19 18 18 18 18 16 16 17 17 17 16 16 15 13 12 12 12 12 11 10 10 10 10 10 9 9 8
10 11 11 12 13 12 12 13 14 15 16 17 18 18 19 19 19 18 19 19 18 17 16 17 17 18 17 17 16 16 14 13 13 13 13 12 11 10 10 8 9 9 8 8
11 12 12 12 13 13 13 14 14 15 16 17 18 18 18 20 19 18 18 19 18 17 17 17 18 17 17 17 17 17 15 15 14 14 14 14 13 13 12 10 8 8 8 8
10 11 11 12 14 14 13 13 15 15 17 17 18 18 19 18 18 20 21 18 18 18 17 17 18 17 17 17 17 18 17 16 15 15 14 14 14 14 13 13 12 10 8 8
10 10 11 12 13 14 14 14 14 15 16 17 18 18 19 19 19 18 18 18 18 18 18 18 18 17 17 17 18 18 18 18 17 16 15 14 14 14 14 13 13 12 11 11
9 9 10 12 14 14 14 14 15 15 16 17 17 17 18 18 19 18 18 18 18 18 18 18 18 18 17 18 18 19 19 19 18 18 18 16 15 15 15 14 14 13 13 13
11 11 11 11 13 13 14 14 15 16 16 18 17 17 17 17 18 18 18 19 19 19 19 18 18 18 18 18 18 18 19 19 19 18 18 18 16 16 15 15 14 14 13 13
11 11 11 11 11 12 13 14 15 16 16 17 18 17 17 18 18 18 19 19 19 19 19 19 19 19 19 19 19 18 19 19 19 19 19 19 18 17 16 16 15 15 14 14